www.pogodaiklimat.ru

Погода и климат >> Архив погоды >> Иран >> Ираншехр


ПОГОДА в Ираншехре

  • Прогноз погоды в Ираншехре
  • Монитор погоды в Ираншехре

АРХИВ ПОГОДЫ в Ираншехре

Время (UTC), дата Ветер
(напр.,м/с)
 
Видим.   Явления Облачность Т
(С)
Тd
(С)
f
(%)
Тe
(С)
Тes
(С)
Комфортность P
(гПа)
Po
(гПа)
Тmin
(С)
Tmax
(С)
R
(мм)
R24
(мм)
S
(см)
18 17.06 С 5 10 км 1/0
[Ci sp]
+39.4 -0.5 8 +36 +36 очень
жарко
995.4 933.8
21 17.06 В 3 10 км 1/0
[Ci sp]
+35.4 -0.6 10 +32 +32 жарко 995.8 934.1
00 18.06 СВ 5 12 км 1/0
[Ci sp]
+33.3 +0.7 13 +30 +30 жарко 996.3 934.5
03 18.06 штиль 0 10 км 1/0
[Ci sp]
+34.2 +1.3 12 +31 +36 жарко 997.9 935.9 +30.9
06 18.06 СВ 2 15 км ясно +40.8 +2.2 9 +37 +55 опасность
солнечного
удара
997.4 935.8
09 18.06 Ю 3 20 км ясно +43.7 +3.2 9 +41 +58 опасность
перегрева
995.3 933.7 666
12 18.06 Ю 3 15 км ясно +45.3 +3.6 8 +42 +48 опасность
перегрева
992.8 931.3
15 18.06 ЮЗ 4 15 км ясно +43.1 +3.3 9 +40 +40 очень
жарко
992.5 930.9 +45.5
18 18.06 С 5 10 км ясно +39.9 +0.2 8 +36 +36 очень
жарко
994.0 932.6
21 18.06 В 3 10 км ясно +35.5 +0.2 11 +32 +32 жарко 993.7 932.2
00 19.06 СВ 4 10 км ясно +33.7 -0.4 11 +30 +30 жарко 994.0 932.4
03 19.06 СВ 4 12 км ясно +35.7 +1.5 12 +32 +35 жарко 995.0 933.4 +31.9
06 19.06 В 3 12 км ясно +42.3 +5.0 10 +39 +54 опасность
солнечного
удара
994.6 933.4
09 19.06 Ю 4 12 км 1/1 1200 м
[Cu med, cong]
+45.1 +9.5 12 +43 +56 опасность
перегрева
993.2 932.0
12 19.06 ЮЗ 3 12 км 6/3 1200 м
[Sc diur, vesp Ac As]
+44.2 +8.8 12 +42 +45 опасность
перегрева
991.6 930.2
15 19.06 Ю 5 12 км 5/4 1200 м
[Sc diur, vesp Ci sp]
+42.1 +9.9 15 +41 +41 опасность
перегрева
992.0 930.6 +45.4
18 19.06 ЮВ 2 10 км ясно +37.6 +11.1 20 +37 +37 очень
жарко
993.6 932.3
21 19.06 ЮВ 2 10 км ясно +36.5 +15.7 29 +38 +38 очень
душно
993.3 932.3
00 20.06 ЮВ 3 10 км ясно +35.1 +13.8 28 +36 +36 очень
жарко
994.3 933.0
03 20.06 Ю 3 6000 м мгла ясно +36.0 +13.1 25 +36 +39 очень
жарко
996.6 935.0 +32.8 666
06 20.06 Ю 2 6000 м мгла ясно +40.5 +14.5 22 +41 +59 опасность
перегрева
997.1 935.5
09 20.06 Ю 3 8000 м мгла 6/1 1200 м
[Cu hum Cc]
+43.4 +12.9 17 +43 +57 опасность
перегрева
995.1 933.8 666
12 20.06 З 4 10 км 3/3 1200 м
[Cu med, cong]
+45.2 +9.1 12 +43 +47 опасность
перегрева
992.6 931.4
15 20.06 З 2 12 км 4/4 1200 м
[Sc diur, vesp]
+42.1 +10.4 15 +41 +41 опасность
перегрева
994.0 932.5 +45.6 666
18 20.06 ЮВ 4 12 км 4/1 1200 м
[Sc diur, vesp Ac As]
+37.1 +13.7 25 +38 +38 душно 996.2 934.6
21 20.06 С 6 12 км 1/1 1200 м
[Sc diur, vesp]
+34.3 +13.2 28 +35 +35 очень
жарко
995.6 934.0
00 21.06 В 2 12 км ясно +32.3 +12.6 30 +33 +33 жарко 996.0 934.4
03 21.06 СВ 2 10 км 5/0
[Ac trans Ci sp]
+33.7 +12.5 28 +34 +37 очень
жарко
998.3 936.4 +31.0 666
06 21.06 ЮЗ 3 6000 м мгла 4/1 1200 м
[Cu hum Ac trans]
+39.2 +16.7 27 +42 +52 опасность
перегрева
998.8 937.0
09 21.06 З 5 6000 м мгла 1/1 1200 м
[Cu hum]
+43.2 +12.5 17 +43 +53 опасность
перегрева
996.9 935.2 666
12 21.06 З 6 8000 м пыльный позёмок 1/1 1200 м
[Cu med, cong]
+44.3 +9.0 12 +42 +45 опасность
перегрева
994.7 933.0
15 21.06 СЗ 4 6000 м мгла 9/5 1200 м
[Sc diur, vesp Ac As]
+42.5 +9.5 14 +41 +41 опасность
перегрева
995.2 933.4 +44.9
18 21.06 З 4 10 км 9/1 1200 м
[Sc diur, vesp Ac As]
+39.3 +9.2 16 +37 +37 очень
жарко
996.9 935.2
21 21.06 штиль 0 8000 м мгла 9/0
[Ac As]
+37.3 +9.1 18 +36 +36 очень
жарко
996.8 935.3
00 22.06 СЗ 2 10 км 9/0
[Ac As]
+35.7 +8.9 19 +34 +34 очень
жарко
997.2 935.7
03 22.06 ЮЗ 3 8000 м мгла 9/0
[Ac As]
+34.7 +12.6 26 +35 +36 очень
жарко
999.3 937.4 +33.8
06 22.06 З 5 10 км 5/0
[Cs]
+39.0 +15.0 24 +40 +48 очень
душно
999.6 937.9
09 22.06 З 6 10 км ясно +42.3 +13.4 18 +42 +50 опасность
перегрева
997.9 936.4
12 22.06 З 5 12 км 5/0
[Cs]
+44.3 +9.9 13 +43 +46 опасность
перегрева
995.7 934.3
15 22.06 З 7 10 км 8/0
[Ac trans]
+42.5 +8.2 13 +40 +40 очень
жарко
995.6 933.9 +44.5
18 22.06 З 6 10 км 8/3 1200 м
[Sc diur, vesp Ac As]
+40.6 +8.9 15 +39 +39 очень
жарко
996.8 935.2
21 22.06 Ю 2 10 км 9/0
[Ac As]
+35.2 +7.4 18 +33 +33 жарко 997.2 935.4
00 23.06 штиль 0 12 км 9/0
[Ac As]
+33.8 +8.0 20 +32 +32 жарко 997.1 935.4
03 23.06 штиль 0 8000 м мгла 9/0
[Ac As]
+34.9 +9.1 21 +34 +35 очень
жарко
998.7 936.8 +32.8 666
06 23.06 Ю 2 8000 м мгла 8/0
[Ac As]
+39.9 +12.0 19 +39 +47 очень
жарко
998.4 936.9
09 23.06 Ю 2 10 км 3/0
[Ac As]
+44.6 +9.9 13 +43 +59 опасность
перегрева
996.2 934.7
12 23.06 ЮЗ 3 10 км 5/0
[Ac As]
+46.1 +7.9 10 +44 +48 опасность
перегрева
993.8 932.4
15 23.06 ЮЗ 3 12 км 5/0
[Ac As]
+44.0 +7.4 11 +42 +42 опасность
перегрева
993.9 932.4 +46.9
18 23.06 СВ 7 10 км ясно +40.6 +5.3 12 +38 +38 очень
жарко
995.4 934.0
21 23.06 СВ 7 10 км ясно +38.2 +4.6 13 +35 +35 очень
жарко
996.2 934.9
00 24.06 СВ 7 10 км ясно +36.4 +1.6 11 +33 +33 жарко 997.1 935.7
03 24.06 штиль 0 8000 м мгла ясно +37.0 +0.2 10 +33 +38 жарко 999.3 937.6 +34.5 666
06 24.06 ЮЗ 3 12 км ясно +40.8 +3.8 10 +38 +52 опасность
солнечного
удара
999.5 937.9
09 24.06 С 6 15 км пыльные вихри ясно +43.0 +2.0 8 +39 +48 очень
жарко
997.4 935.9
12 24.06 С 3 12 км ясно +44.6 +0.6 7 +41 +47 опасность
перегрева
994.9 933.5
15 24.06 СЗ 9 5000 м пыльный позёмок ясно +42.0 -1.6 7 +38 +38 очень
жарко
996.0 934.3 +45.5

 

Местоположение метеостанции Ираншехр (Иран): широта 27.20 долгота 60.70 высота над уровнем моря 591 м.

В архиве по умолчанию представлена погода в Ираншехре за последнюю неделю. Архивные данные за месяц целиком и за предыдущие месяцы, начиная с января 2011 года, Вы можете получить, выбрав интересующий диапазон дат из раскрывающегося списка и нажав кнопку "Ввод!".


*Определитесь, кто Вы:
робот инопланетянин человек

Внимание! Время в таблицах - всемирное. Для получения местного времени необходимо прибавить поправку, которая равна 3.5 ч.

Смотрите также архив погоды в соседних городах и на ближайших метеорологических станциях:

Погода в Сараване (Иран) (162 км)
Погода в Аэропорту Конарак (Иран) (214 км)
Погода в Захедане (Иран) (253 км)
Погода в Дживани (Пакистан) (261 км)
Погода в Нок-Кунди (Пакистан) (270 км)
Погода в Гавадаре (Пакистан) (282 км)
Погода в Кехнудже (Иран) (308 км)
Погода в Баме (Иран) (309 км)
Погода в Панджгуре (Пакистан) (338 км)
Погода в Джаске (Иран) (340 км)

Пояснения к столбцам:

Ветер - указаны скорость ветра в м/с - средняя за 10 мин, порывы в срок и между сроками (в фигурных скобках) и направление, откуда дует ветер: С - северный, СВ - северо-восточный, В - восточный, ЮВ - юго-восточный, Ю - южный, ЮЗ - юго-западный, З - западный, СЗ - северо-западный.
Видимость - горизонтальная дальность видимости в метрах или километрах. При видимости от 1 до 10 км при отсутствии осадков обычно наблюдается дымка, при ухудшении видимости до 1 км и менее - туман. В сухую погоду видимость может ухудшаться дымом, пылью или мглою.
Явления - указаны атмосферные явления, наблюдавшиеся в срок или в последний час перед сроком; фигурными скобками обозначены явления, наблюдавшиеся между сроками (за 1-3 часа до срока); квадратными скобками обозначены град или гололедные отложения с указанием их диаметра в мм.
Облачность - указаны через наклонную черту общая и нижняя облачность в баллах и высота нижней границы облаков в метрах; квадратными скобками обозначены формы облаков: Ci - перистые, Cs - перисто-слоистые, Cc - перисто-кучевые, Ac - высококучевые, As - высокослоистые, Sc - слоисто-кучевые, Ns - слоисто-дождевые, Cu - кучевые, Cb - кучево-дождевые. Подробнее классификацию облаков см. в Атласе облаков (PDF).
T - Температура воздуха - температура, измеренная на высоте 2 м над землей.
Td - Температура точки росы - температура, при понижении до которой содержащийся в воздухе водяной пар достигнет насыщения.
f - Относительная влажность воздуха - влажноcть воздуха, измеренная на высоте 2 м над землей.
Te - Эффективная температура - температура, которую ощущает одетый по сезону человек в тени. Характеристика душности погоды. При расчете учитывается влияние влажности воздуха и скорости ветра на теплоощущения человека.
Tes - Эффективная температура на солнце - температура, которую ощущает человек, с поправкой на солнечный нагрев. Характеристика знойности погоды. Зависит от высоты солнца над горизонтом, облачности и скорости ветра. Ночью, в пасмурную погоду, а также при ветре 12 м/с и более поправка равна нулю.
P - Атмосферное давление - приведенное к уровню моря атмосферное давление.
Po - Атмосферное давление - измеренное на уровне метеостанции атмосферное давление.
Tmin - Минимальная температура - минимум температуры воздуха на высоте 2 м над землей.
Tmax - Максимальная температура - максимум температуры воздуха на высоте 2 м над землей.
R - Количество осадков - Количество выпавших осадков за период времени, мм. При наведении курсора мыши на число - период времени, за который выпало указанное количество осадков.
R24 - Количество осадков - Количество выпавших осадков за 24 часа, мм.
S - Снежный покров - Высота снежного покрова, см. При наведении курсора мыши на число - состояние снежного покрова и степень покрытия местности в баллах.